This demonstration page uses our WeatherBlox Daily Observations layout. Learn more.

Left ArrowRight Arrow

39.12711, -84.51439

Hourly Observations for June 10, 2016

Temp ( °F °C ) Dew Point ( °F °C ) Humidity (%) Winds ( mph kmh ) Pressure ( in mb ) Visibility ( mi km ) Precip ( " mm )
12:53 am 00:53 Clear 65 18.3 59 15 81 81 N N/A 30.04 1017 10 16 N/A
1:53 am 01:53 Mostly Cloudy 63 17.2 59 15 87 87 N N/A 30.04 1017 10 16 N/A
2:53 am 02:53 Mostly Cloudy 61 16.1 59 15 93 93 N N/A 30.04 1017 10 16 N/A
3:53 am 03:53 Clear 59 15 58 14.4 96 96 N N/A 30.04 1017 10 16 N/A
4:53 am 04:53 Clear 59 15 58 14.4 96 96 N N/A 30.04 1017 10 16 N/A
5:53 am 05:53 Mostly Clear 58 14.4 58 14.4 100 100 N N/A 30.06 1018 10 16 N/A
6:53 am 06:53 Mostly Cloudy 61 16.1 60 15.6 97 97 N N/A 30.06 1018 10 16 N/A
7:53 am 07:53 Cloudy 64 17.8 61 16.1 90 90 N N/A 30.08 1019 10 16 N/A
8:53 am 08:53 Cloudy 67 19.4 60 15.6 79 79 E 5 7 30.12 1020 10 16 N/A
9:53 am 09:53 Cloudy 68 20 60 15.6 76 76 N N/A 30.16 1021 10 16 N/A
10:53 am 10:53 Cloudy with Light Rain 66 18.9 64 17.8 93 93 SSW 5 7 30.16 1021 6 10 0.05 1.27
11:53 am 11:53 Cloudy with Rain 64 17.8 64 17.8 100 100 S 6 9 30.16 1022 4 6 0.13 3.30
12:29 pm 12:29 Cloudy with Thunderstorms 65 18.3 65 18.3 100 100 S 6 9 30.12 1020 4 6 0.13 3.30
12:53 pm 12:53 Cloudy with Rain 65 18.3 65 18.3 100 100 SSW 12 19 30.14 1021 4 6 0.22 5.59
1:17 pm 13:17 Cloudy with Nearby Thunderstorms 66 18.9 66 18.9 100 100 SSW 8 13 30.12 1020 4 6 0.04 1.02
1:18 pm 13:18 Cloudy with Thunderstorms 66 19 66 19 100 100 SSW 9 15 30.12 1020 4 6 N/A
1:53 pm 13:53 Cloudy with Rain 67 19.4 67 19.4 100 100 ESE 5 7 30.12 1020 4 6 0.10 2.54
2:09 pm 14:09 Cloudy with Light Rain 66 19 66 19 100 100 S 3 6 30.09 1019 8 13 N/A
2:18 pm 14:18 Cloudy 68 20 66 19 94 94 S 5 7 30.09 1019 9 14 N/A
2:48 pm 14:48 Mostly Cloudy 70 21 68 20 94 94 S 5 7 30.09 1019 10 16 N/A
2:53 pm 14:53 Mostly Cloudy 70 21.1 67 19.4 90 90 VRB 5 7 30.12 1020 10 16 0.01 0.25
3:17 pm 15:17 Mostly Cloudy 71 21.7 69 20.6 94 94 VRB 6 9 30.09 1019 10 16 N/A
3:36 pm 15:36 Mostly Sunny 73 23 68 20 83 83 S 8 13 30.09 1019 10 16 N/A
3:53 pm 15:53 Sunny 74 23.3 68 20 82 82 SSE 7 11 30.09 1019 10 16 N/A
4:53 pm 16:53 Sunny 74 23.3 67 19.4 79 79 SSW 7 11 30.06 1018 10 16 N/A
5:53 pm 17:53 Sunny 77 25 69 20.6 77 77 SSW 3 6 30.05 1018 10 16 N/A
6:53 pm 18:53 Partly Cloudy 79 26.1 70 21.1 74 74 SSW 3 6 30.03 1017 10 16 N/A
7:53 pm 19:53 Sunny 79 26.1 71 21.7 77 77 SSW 6 9 30.02 1017 10 16 N/A
8:53 pm 20:53 Sunny 74 23.3 72 22.2 94 94 N N/A 30.02 1017 10 16 N/A
9:53 pm 21:53 Clear 70 21.1 70 21.1 100 100 N N/A 30.01 1016 10 16 N/A
10:53 pm 22:53 Clear with Mist and Fog 68 20 68 20 100 100 N N/A 30.03 1017 6 10 N/A
11:37 pm 23:37 Clear with Mist and Fog 67 19.4 67 19.4 100 100 N N/A 30.03 1017 2 3 N/A
11:53 pm 23:53 Clear with Mist and Fog 67 19.4 67 19.4 100 100 N N/A 30.05 1018 3 4 N/A

Powered by AerisWeather